Location: Härggis
(46.9540°N, 8.4897°E)
Time: 03:11:12
(UTC+00:00)

MOZ.5/SAFIR/RUBIN 5/SL-8 - Pass Details

Date: 27 May 2022
Orbit: 677 x 704 km, 98.2° (Epoch: 26 June)

Event Time Altitude Azimuth Distance (km) Brightness Sun altitude
Exits shadow 00:34:55 38° 163° (SSE) 1,062 4.3 -19.9°
Maximum altitude 00:36:46 88° 76° (ENE) 705 3.7 -19.8°
Drops below altitude 10° 00:41:33 10° 347° (NNW) 2,176 7.2 -19.5°
Sets 00:43:49 0° 347° (NNW) 3,102 8.1 -19.4°
